Find Starlink 2683

NORAD ID: 48462 Int'l Des: 2021-040 Owner: SPXS Country: US Constellation: starlink operational
LEOCIRCULARSTARLINK_TYPE

現在のビュー

3D地球を読み込み中...

About Starlink 2683

Starlink 2683 (NORAD 48462) is a starlink constellation satellite (v1.0) launched May 9, 2021 by SPXS of US. It operates in LEO, CIRCULAR, STARLINK_TYPE orbit with a mass of 260.00 kg.

Starlink 2683について

説明を読み込み中...

次回通過

Passes for default location (London). Set your location on the main map for personalized predictions.

高度履歴

Loading altitude history...

軌道要素

1 48462U 21040AL 26171.43526164 .00013078 00000-0 43222-3 0 9994
2 48462 53.1593 73.0762 0001414 89.0847 271.0317 15.31716813282248
Epoch: Jun 20, 2026 • Age: 19 hours

現在のステータス

高度 473.2 km
速度 7.63 km/s
衛星直下点 39.05°N, 144.24°W
打ち上げ日 May 9, 2021
運用期間 5.1 years
タイプ internet

技術仕様

分類 Payload
質量 260.00 kg
乾燥質量 248.00 kg
総質量 260.00 kg
長さ 0.20 m
直径 2.80 m
スパン 9.00 m
形状 Box + pan
製造者 SPXS
バスタイプ Starlink
フェーズステータス In Orbit
所有者/国 SPXS/US

Most Searched